Theta_e
300 300 300 301 301 300 300 299 300 302 303 304 305 305 302 301 301 300 301 300 298 301 305 303 302 301 301 300 297 297 298 297 297 298 297 297 297 297 297 297 297 297 296 296 296 296 296 296 296 296 296 295 295 295 295 295 295 295 295 295 295 294 294 294 294 294 294 294 294 294 294 293 293 293 293 292 292 291 291 291 291 292 292 292 291 291
299 301 300 301 299 299 299 298 299 301 303 304 306 306 303 300 300 300 300 300 298 300 304 303 302 301 299 298 296 296 297 297 297 298 298 298 298 298 297 297 297 297 297 296 296 296 296 296 296 296 296 296 296 295 295 296 295 295 295 295 295 294 294 294 294 294 294 294 294 294 294 294 294 293 293 293 292 292 291 291 292 292 292 292 291 291
301 302 301 300 297 297 299 298 300 302 303 305 306 307 305 300 301 302 301 301 298 300 305 304 301 300 298 296 296 296 297 297 298 298 298 298 298 298 298 298 298 297 297 297 296 296 296 296 296 297 296 296 296 296 296 296 295 295 295 295 294 294 294 293 293 293 294 294 294 294 294 294 294 293 293 293 293 292 292 292 291 292 292 291 291 291
302 302 300 298 297 300 302 299 299 301 302 304 304 305 303 300 301 302 301 300 298 300 303 303 301 299 298 297 296 296 298 298 298 298 298 298 298 298 298 298 298 298 298 297 297 296 296 297 297 297 296 296 296 296 296 296 295 295 294 294 294 294 294 293 293 293 293 293 293 294 294 294 294 293 293 293 293 292 292 292 291 291 291 291 291 291
301 299 298 298 299 303 303 299 299 300 302 303 303 303 301 300 300 300 301 300 300 301 300 302 305 301 298 298 296 296 297 297 298 298 298 298 298 298 298 298 298 298 298 298 297 297 297 297 297 296 296 296 296 296 296 295 295 295 294 294 294 294 294 293 293 292 292 292 292 293 293 293 293 293 293 293 292 292 292 292 292 291 291 291 291 291
300 298 298 301 303 304 303 301 300 300 302 304 303 301 301 300 299 300 301 301 304 305 300 303 308 303 299 299 298 296 296 296 297 297 298 298 299 299 299 299 298 298 298 297 297 297 297 297 297 297 297 296 296 296 296 295 295 295 294 294 294 294 293 293 293 293 292 292 292 292 292 293 293 293 292 292 292 292 292 292 291 291 291 291 291 291
299 298 298 300 303 304 303 301 299 299 302 304 301 301 300 299 299 300 302 303 305 305 301 303 308 305 301 300 299 298 297 297 297 296 297 298 298 299 299 299 298 298 298 298 298 297 297 297 297 297 297 297 296 296 296 295 295 295 294 294 294 293 293 293 293 292 292 292 292 292 292 292 292 292 292 292 292 292 291 291 291 291 291 291 291 291
300 300 299 300 301 302 300 299 300 299 300 303 302 301 300 298 299 300 302 304 303 305 306 304 305 306 303 300 299 298 297 298 298 296 296 297 297 298 298 298 298 298 298 298 298 297 297 297 297 297 296 296 296 295 295 295 294 294 294 294 293 293 293 293 293 292 292 292 292 292 292 292 292 292 292 291 291 291 291 291 291 291 291 291 291 291
299 302 300 300 300 300 299 298 299 299 300 304 301 299 298 298 299 300 303 305 303 307 309 302 302 306 303 300 299 298 298 298 298 298 296 296 297 297 297 298 297 297 297 297 297 297 296 296 296 295 295 295 295 294 294 294 294 294 293 293 293 293 293 293 292 292 292 292 292 292 292 292 292 292 291 291 291 291 291 291 291 291 291 291 291 290
298 300 299 299 300 299 299 298 297 298 301 302 298 299 301 300 301 302 303 304 306 310 307 300 300 304 303 301 299 299 298 298 298 298 296 296 297 297 297 297 297 296 296 296 296 296 295 295 295 295 294 294 294 294 294 294 293 293 293 293 293 293 293 293 292 292 292 292 292 292 292 292 292 291 291 291 291 291 291 291 291 291 291 290 290 290
298 299 299 298 299 298 298 298 296 296 298 299 298 302 304 302 302 304 302 304 310 312 306 300 299 301 303 300 298 298 298 297 299 299 296 296 297 297 297 296 296 296 296 295 295 295 295 295 294 294 294 294 294 294 293 293 293 293 293 293 293 293 293 292 292 292 292 292 292 292 292 292 291 291 291 291 291 291 291 291 291 291 290 290 290 290
301 302 300 298 298 297 298 300 299 297 297 298 300 302 305 306 304 306 308 309 312 309 304 301 299 301 305 303 298 299 298 296 297 298 297 296 296 296 296 296 296 295 295 295 295 295 294 294 294 294 294 294 294 293 293 293 293 293 293 293 293 293 292 292 292 292 292 292 292 292 292 292 292 291 291 291 291 291 291 291 290 290 290 290 290 290
305 303 299 298 298 296 299 303 303 303 301 299 301 302 308 312 308 308 312 310 308 306 302 299 299 303 305 303 300 299 299 297 296 297 297 295 296 296 296 296 296 295 295 295 295 294 294 294 294 294 294 294 293 293 293 293 293 293 293 293 293 293 292 292 292 292 292 292 292 292 292 291 291 291 291 291 291 291 290 290 290 290 290 289 289 289
308 305 300 300 300 297 298 301 302 304 303 300 301 302 306 310 308 308 308 304 306 306 302 297 299 303 302 300 300 299 297 297 296 296 296 295 295 296 295 295 295 295 295 294 294 294 294 294 294 294 294 294 293 293 293 293 293 293 293 293 293 293 293 292 292 292 292 292 292 292 291 291 291 291 291 290 290 290 290 290 289 289 289 288 288 288
306 307 302 300 299 297 297 298 297 299 300 301 300 301 303 303 303 305 305 304 305 304 302 300 300 302 302 300 299 298 296 297 297 296 296 296 296 295 295 295 295 295 294 294 294 294 294 294 294 294 294 294 294 293 293 293 293 293 293 293 293 292 292 292 292 292 292 292 292 291 291 291 291 291 290 290 290 290 289 289 288 288 287 287 287 286
302 303 301 299 297 296 297 296 295 297 301 301 300 302 303 300 300 302 301 300 301 301 304 305 302 301 300 297 296 296 295 296 296 296 296 295 295 295 295 295 295 294 294 294 294 294 294 294 294 294 294 294 293 293 293 293 293 293 293 293 293 292 292 292 292 292 292 291 291 291 291 291 290 290 290 290 289 289 288 287 286 286 285 285 285 284
302 303 302 300 297 296 296 296 296 297 300 302 302 302 299 297 299 301 300 298 298 301 304 303 301 300 299 298 297 295 295 296 295 295 296 295 295 295 295 295 294 294 294 294 294 294 294 294 294 294 294 294 293 293 293 293 293 293 293 293 292 292 292 292 292 291 291 291 291 291 290 290 289 289 289 288 287 286 285 284 284 283 283 282 282 281
300 304 303 299 299 298 295 296 297 296 297 301 303 299 296 297 300 300 300 301 302 304 304 301 299 300 300 299 297 295 296 298 296 295 295 295 295 295 295 295 295 295 295 294 294 294 294 294 294 294 294 294 293 293 293 293 293 293 293 292 292 292 292 291 291 291 291 291 290 290 289 289 288 287 286 285 284 283 282 282 281 281 280 280 280 280
296 304 304 298 299 299 296 297 300 298 296 298 298 296 297 301 303 300 300 302 302 303 304 301 298 298 300 299 298 296 297 298 297 295 294 294 295 295 295 295 295 295 295 294 294 294 294 294 294 294 294 293 293 293 293 293 293 293 292 292 292 292 291 291 291 291 290 289 289 288 287 286 285 283 282 282 281 281 280 280 279 279 279 279 279 279
295 302 306 301 297 297 298 301 301 300 298 298 298 298 300 302 300 298 299 300 300 302 303 302 301 302 302 301 300 298 298 298 298 296 294 294 295 294 294 295 295 295 294 295 294 294 294 294 294 294 294 293 293 293 293 293 293 292 292 292 292 292 291 291 290 290 289 288 287 286 285 283 282 281 280 280 280 279 279 279 279 279 279 278 278 278
296 300 304 304 300 299 301 300 297 298 298 299 300 299 301 301 298 298 298 297 299 302 302 301 303 305 302 300 300 300 298 297 296 295 294 294 294 295 295 295 295 295 294 295 294 294 294 294 294 294 293 293 293 293 293 293 293 292 292 292 291 291 291 290 289 288 288 286 285 283 282 281 280 280 280 279 279 279 279 279 279 278 278 278 278 278
297 298 300 304 304 303 301 296 294 296 295 297 297 297 299 300 300 301 300 298 297 298 300 300 301 304 300 297 297 298 296 295 295 295 294 294 295 295 295 295 295 295 295 295 294 294 294 294 294 293 293 293 293 293 293 292 292 292 292 291 291 291 290 289 288 287 286 284 282 281 280 280 280 280 280 280 280 279 279 279 278 278 278 278 278 277
296 297 299 303 302 300 297 293 292 293 293 294 294 295 298 298 300 303 301 300 297 295 296 296 298 303 300 294 294 295 295 295 295 295 294 294 295 295 295 295 295 295 294 295 294 294 294 294 293 293 293 294 293 293 292 292 292 291 291 291 291 290 289 288 287 285 283 281 280 280 280 280 280 280 280 280 280 279 279 278 278 278 278 278 278 278
297 299 300 303 304 301 296 292 290 289 291 295 295 296 296 296 299 301 298 297 297 296 297 296 298 304 300 294 294 295 295 295 296 295 294 295 295 295 295 294 294 295 294 295 294 294 294 294 293 294 294 293 293 292 292 292 291 291 291 291 290 289 288 287 285 283 281 280 280 280 280 280 280 280 280 280 279 279 279 278 278 278 278 278 278 278
297 300 300 302 307 307 303 301 297 295 295 298 297 296 296 295 296 297 295 295 296 297 297 298 302 306 300 295 294 294 294 295 295 295 295 295 295 295 295 294 295 295 295 294 294 294 294 294 294 294 293 293 293 292 292 291 291 291 291 290 289 288 287 285 282 281 280 280 280 279 280 280 280 280 280 279 279 278 279 279 279 279 279 279 279 278
296 298 299 302 306 306 306 306 303 300 299 298 296 295 295 296 296 295 295 296 298 296 294 297 302 303 298 296 296 294 293 294 295 295 295 295 295 295 294 294 295 295 294 294 294 294 294 294 294 294 293 293 292 292 292 291 291 290 290 289 288 287 285 282 281 280 280 279 279 280 280 280 280 280 279 279 278 279 279 279 279 279 279 278 278 278
297 297 297 301 304 304 304 303 299 297 298 298 296 295 295 296 295 296 296 297 297 295 295 297 298 298 296 296 296 296 295 294 294 294 294 295 295 295 294 294 295 294 294 294 294 294 294 294 294 293 293 292 292 292 291 291 291 290 289 288 287 285 283 281 280 280 279 279 279 280 280 280 280 279 279 279 279 279 279 279 279 279 279 278 277 277
298 298 296 297 300 300 300 299 296 295 296 296 296 295 295 295 295 295 296 296 295 295 298 298 295 295 297 296 295 296 295 294 293 293 294 295 295 294 294 294 295 294 294 294 294 294 294 294 293 293 293 292 292 291 291 291 290 289 288 287 286 283 281 280 280 279 279 279 280 280 280 280 279 279 279 279 279 279 279 279 279 278 278 277 277 277
296 297 296 295 298 298 297 296 295 294 295 295 295 294 294 295 295 295 295 294 294 296 299 298 295 295 296 295 295 295 294 293 294 294 295 294 294 294 294 294 295 295 294 294 294 294 294 294 293 293 292 292 291 291 290 290 289 288 287 286 284 281 280 280 279 279 279 280 280 280 279 279 279 279 279 279 279 279 279 278 278 278 277 277 277 277
295 299 296 294 296 297 296 295 294 293 294 295 294 294 294 294 294 295 294 294 294 294 295 295 294 294 294 294 294 294 294 294 294 294 294 294 294 294 294 295 295 294 294 294 294 294 294 293 293 292 292 291 291 290 290 289 288 287 286 284 281 280 280 279 279 279 280 280 280 280 279 279 279 279 279 279 279 279 278 278 277 277 278 277 277 277
294 298 296 294 297 299 299 297 294 293 294 295 295 294 293 293 294 294 293 293 293 294 293 293 293 293 293 293 294 294 294 294 294 294 294 294 294 294 294 295 294 294 294 294 294 294 293 293 292 292 291 291 290 290 289 288 287 286 284 282 280 280 279 279 279 280 280 280 280 279 279 280 279 279 279 279 279 278 278 277 277 277 277 277 277 277
294 297 296 295 298 301 301 300 297 293 293 294 296 297 295 294 296 296 293 293 294 294 294 294 294 295 294 294 293 294 294 294 293 294 294 294 294 294 294 295 294 294 294 294 294 293 293 293 292 292 291 291 290 289 288 287 286 285 283 280 280 280 279 279 279 280 280 280 280 280 280 280 279 279 279 279 278 277 277 277 277 277 277 277 277 277
294 297 297 295 298 302 301 297 294 294 298 301 303 304 302 298 297 296 295 294 294 294 295 296 297 296 294 293 293 294 293 293 294 294 294 294 293 294 294 295 294 294 294 294 294 293 293 292 292 291 291 290 289 288 287 286 285 283 281 280 280 279 279 279 280 280 280 280 280 280 280 280 280 279 279 278 277 277 277 277 277 277 276 276 277 277
293 296 296 294 298 303 301 295 293 298 307 308 304 301 301 301 300 299 298 297 295 294 295 296 296 294 292 293 294 294 293 294 295 295 295 294 294 294 295 295 294 294 294 294 293 293 292 292 291 291 290 290 289 287 286 285 283 282 280 280 279 279 279 280 280 280 280 279 280 280 280 279 279 278 278 277 277 277 277 277 276 276 276 276 276 275
294 295 294 293 295 298 298 297 302 308 309 304 299 295 295 297 298 298 297 297 295 294 294 295 295 294 293 294 294 294 295 295 295 295 295 295 295 294 294 294 294 294 294 293 293 292 292 292 291 291 290 289 287 286 285 284 282 281 280 279 279 279 280 280 280 280 279 280 280 280 279 278 278 277 277 277 277 277 277 276 276 276 276 276 275 274
295 295 295 293 294 297 298 299 305 308 303 298 296 294 292 294 295 296 297 298 296 294 294 295 295 293 294 296 296 296 296 295 295 295 295 295 295 295 294 294 294 294 293 293 293 292 292 291 291 290 289 288 286 285 285 283 281 280 280 279 279 279 280 280 280 280 279 280 280 279 278 277 277 277 277 277 277 277 276 276 276 276 276 276 275 274
294 295 295 294 294 296 298 298 300 302 302 301 298 295 294 295 296 295 297 299 296 294 294 295 294 293 294 296 296 295 294 294 294 295 295 295 295 295 294 294 294 293 293 293 292 292 291 291 290 290 288 286 285 285 283 281 280 280 279 279 279 280 280 280 280 280 279 279 279 278 277 277 277 277 277 277 277 276 276 276 276 276 275 275 275 275
291 293 295 295 295 295 296 298 301 305 309 307 300 294 293 295 295 294 296 297 296 295 295 294 293 294 295 295 295 294 293 293 294 294 295 295 295 294 294 294 294 293 293 293 292 292 291 291 290 289 287 285 285 283 282 280 280 279 279 279 279 280 280 280 279 279 279 279 278 278 277 277 277 277 277 277 277 276 275 276 276 275 275 274 275 275
290 292 293 295 296 295 296 300 303 307 310 306 299 293 292 294 294 293 296 300 298 296 296 295 294 295 295 295 294 293 293 294 295 295 295 295 295 295 294 294 294 293 293 292 292 291 291 291 290 288 286 285 284 282 280 280 279 279 279 279 280 280 280 280 279 279 278 278 278 278 277 277 277 276 276 277 277 276 275 275 275 276 276 275 275 275
292 293 293 295 296 295 296 298 299 301 303 301 297 293 292 294 294 295 300 305 300 296 296 296 294 295 295 295 294 293 293 295 295 295 295 295 294 295 294 294 293 293 292 292 292 291 291 290 289 287 285 284 282 280 280 279 279 279 279 279 279 280 279 279 279 278 278 278 278 278 277 277 276 276 276 276 277 276 275 275 275 276 276 277 276 275
292 292 292 293 295 294 294 297 297 299 300 298 295 294 293 293 295 299 303 304 299 296 297 296 295 295 295 295 294 294 294 296 296 295 296 295 294 295 294 294 293 293 292 292 291 291 291 289 287 286 284 282 280 280 279 279 279 279 279 279 279 279 279 279 278 278 278 279 278 277 277 277 276 276 276 276 277 277 276 276 276 275 276 276 276 276
294 292 292 292 294 294 293 293 295 299 298 295 293 294 293 295 299 302 301 299 298 297 297 296 296 296 295 295 295 295 296 296 296 295 295 295 295 294 294 293 293 292 292 291 291 291 290 288 286 285 283 281 280 279 279 279 279 279 279 279 279 279 279 279 278 278 278 279 278 277 277 277 276 276 276 277 277 277 277 277 276 276 276 276 276 276
297 297 296 293 293 295 293 293 301 306 300 293 294 294 293 296 302 302 298 298 298 297 297 296 296 296 296 296 296 296 296 296 296 295 295 295 295 294 294 293 292 292 292 291 291 290 289 287 285 283 281 280 279 279 279 279 279 279 279 279 279 279 279 278 278 278 278 278 278 277 278 277 277 276 277 277 278 278 278 277 277 277 276 276 277 277
297 298 300 298 296 299 300 301 307 307 298 294 297 299 296 297 300 298 297 297 297 297 297 297 297 297 296 296 296 296 296 296 295 295 295 295 294 294 293 293 292 292 291 291 290 289 287 285 284 282 280 279 279 279 279 279 279 279 279 279 279 279 278 278 278 278 278 277 277 278 278 278 277 277 277 277 278 278 278 278 278 277 277 277 277 277
298 298 300 301 298 298 301 303 301 298 296 296 298 299 298 298 298 298 297 297 297 297 297 296 297 297 297 296 296 296 296 296 295 295 295 294 294 294 293 293 292 291 291 290 290 288 286 284 283 281 280 279 279 279 279 279 279 279 279 279 279 278 278 278 278 278 278 277 278 278 278 278 278 278 278 278 278 278 278 278 278 277 277 277 276 276
297 295 296 299 298 295 297 299 297 296 297 297 296 297 298 298 298 297 297 297 297 298 298 297 297 297 297 296 296 296 296 296 295 295 295 294 294 293 293 292 292 291 291 290 288 286 285 283 281 280 280 279 279 279 279 279 279 279 279 279 278 278 278 278 278 278 277 277 278 278 278 278 278 279 279 278 278 278 278 277 277 277 277 276 276 276
296 294 295 297 298 297 298 299 297 297 298 297 297 298 298 298 298 298 297 298 298 298 298 297 297 297 297 296 296 296 296 295 295 295 295 294 294 293 293 292 291 291 290 289 287 285 284 282 280 280 279 279 279 279 279 279 279 279 279 278 278 278 278 278 278 278 277 278 278 278 277 278 279 279 279 279 279 279 278 278 277 277 276 275 275 275
297 296 296 297 297 297 298 298 296 297 298 297 297 298 298 299 299 299 298 298 298 298 298 297 297 297 297 296 296 296 295 295 295 295 294 294 293 293 292 291 291 290 289 287 286 285 283 281 280 280 279 279 279 279 279 279 279 279 278 278 278 278 278 278 278 277 277 278 278 278 278 278 278 279 279 279 279 279 278 278 278 278 277 275 273 273
297 296 297 297 297 297 297 297 296 297 298 298 299 300 299 299 299 298 298 298 298 297 298 297 297 297 296 296 296 295 295 295 295 294 294 294 293 292 292 291 291 290 288 286 285 284 281 280 280 279 279 279 279 279 279 279 279 279 278 278 278 278 278 278 278 277 278 278 278 278 278 278 278 278 279 279 279 278 278 277 277 277 277 276 275 273
296 296 296 296 298 299 299 298 298 299 300 300 300 300 299 299 298 298 298 298 297 298 297 297 297 297 297 296 296 295 295 295 294 294 294 293 293 292 291 291 290 288 287 286 285 282 280 280 280 279 279 279 279 279 280 279 279 279 278 278 278 278 277 277 277 278 277 277 278 278 278 278 278 278 278 278 278 279 278 278 277 277 277 277 276 276
296 297 296 297 299 301 300 299 299 299 298 299 300 299 299 298 298 297 298 298 298 298 297 297 297 297 296 296 296 295 295 295 294 294 293 293 292 292 291 291 289 288 287 286 283 281 280 280 280 279 279 279 279 279 279 279 279 279 278 278 278 277 277 277 277 277 277 277 278 278 278 278 278 278 278 278 278 278 278 279 279 278 277 277 277 277
Wind_Speed
11 8 7 5 5 6 7 6 4 4 3 3 2 3 4 4 4 5 3 5 13 7 3 4 6 8 9 7 7 15 14 12 10 8 11 15 16 15 15 14 15 14 12 10 11 11 10 10 10 11 12 12 12 12 12 14 16 17 18 20 22 24 25 27 29 30 30 31 31 31 32 33 33 33 32 30 29 29 28 27 27 27 28 28 29 29
10 10 5 4 5 6 5 6 3 1 1 2 4 3 4 4 5 6 3 4 11 6 3 5 7 9 11 11 1 11 11 9 12 11 10 14 16 16 16 15 15 14 13 12 13 13 11 11 11 12 13 13 13 14 14 16 18 18 19 20 23 25 27 29 31 32 33 33 34 33 34 34 35 34 34 33 32 31 30 29 28 29 29 30 31 31
9 8 6 9 7 3 3 6 5 6 5 4 3 3 3 3 5 6 3 5 9 3 3 5 7 8 10 10 9 9 7 6 11 12 9 10 13 16 16 16 15 15 14 13 13 13 12 10 10 12 12 12 14 15 16 17 17 18 18 20 23 26 28 30 30 32 33 33 33 34 35 35 35 35 35 35 35 35 34 33 32 32 32 33 34 34
6 3 11 13 8 3 5 9 8 6 6 4 4 4 1 3 2 3 3 7 9 1 2 3 4 6 8 8 11 11 8 5 0 4 6 7 10 14 16 16 16 16 15 13 13 12 10 9 10 11 12 12 14 16 16 16 16 17 17 20 26 29 30 31 30 31 31 31 30 31 32 33 35 35 35 36 36 36 37 36 36 36 36 37 38 38
4 6 12 10 7 6 5 10 10 6 5 3 2 5 1 2 1 3 5 7 7 1 1 4 4 5 8 8 8 11 16 16 12 10 9 10 9 11 15 17 17 16 15 13 11 9 8 9 10 11 12 13 15 15 15 15 17 18 19 24 30 31 32 32 30 29 30 30 30 30 30 31 32 34 34 35 36 36 37 38 38 38 38 39 40 40
5 9 10 6 7 8 6 6 7 4 4 4 1 4 4 1 2 5 7 5 4 2 2 4 5 3 6 7 6 6 10 12 15 18 18 18 16 13 12 13 15 14 13 9 7 7 8 10 11 12 14 15 16 17 17 19 21 22 25 29 31 31 32 31 30 29 29 29 29 30 30 30 31 33 33 34 35 36 37 38 38 38 38 38 39 39
4 11 9 5 5 8 7 4 3 4 4 3 1 5 5 2 3 5 5 3 3 1 4 4 5 1 4 6 5 6 6 7 12 17 20 23 22 19 14 8 6 6 6 5 5 7 8 10 12 13 15 16 18 20 21 24 25 26 28 30 30 30 31 31 30 30 30 30 30 29 29 29 30 32 33 33 34 35 36 37 37 37 37 37 37 38
4 10 9 7 7 6 6 4 3 3 3 3 1 4 1 4 4 3 1 2 1 1 4 5 4 3 1 3 5 6 5 7 9 11 16 21 22 21 17 10 6 3 3 4 6 7 9 12 14 15 17 18 20 23 25 26 27 27 28 28 28 29 30 30 30 30 30 31 31 30 30 30 30 32 33 34 35 36 38 39 40 40 39 39 39 39
3 6 6 6 7 6 4 5 5 1 1 4 3 0 5 4 3 3 3 1 1 2 4 6 5 3 1 3 5 4 4 6 7 6 10 15 17 19 18 14 11 9 7 8 9 11 13 15 17 19 20 21 23 24 25 25 26 26 27 27 27 28 29 30 30 30 30 30 30 30 31 31 32 32 34 35 36 37 38 40 41 41 41 41 41 41
1 2 3 3 5 5 4 7 6 2 1 8 5 3 3 1 2 3 3 1 2 5 2 4 5 2 2 3 4 3 3 3 5 5 7 11 13 13 14 13 13 13 11 12 13 14 16 17 18 20 21 22 22 22 23 24 25 26 27 28 28 29 30 30 30 29 29 29 30 31 31 32 33 34 35 36 37 38 39 40 41 41 41 41 41 41
2 1 2 4 4 6 7 7 5 3 5 10 5 4 4 3 3 3 2 2 4 4 2 2 2 1 1 3 3 1 0 2 3 4 6 9 10 10 11 11 12 14 12 12 13 14 17 18 19 21 22 23 23 23 24 24 25 26 27 28 28 29 29 29 29 29 30 31 31 32 32 34 35 36 37 38 39 40 40 41 42 42 41 41 41 40
6 3 3 3 5 9 6 4 4 2 5 9 4 2 3 2 3 3 4 4 5 2 4 2 2 2 2 3 4 3 3 3 3 3 5 7 8 8 9 9 10 12 11 12 14 16 19 20 21 22 24 24 25 25 25 25 26 27 27 28 29 29 29 29 30 30 31 31 31 32 33 34 35 36 37 38 40 41 42 43 43 42 41 41 41 41
5 2 5 5 4 11 7 2 6 5 6 9 6 4 4 2 3 2 3 3 1 3 3 1 3 2 2 4 4 4 5 5 5 4 4 5 7 6 8 10 10 11 13 15 17 19 20 21 22 23 24 25 26 26 26 26 27 27 27 28 29 30 30 30 31 31 31 32 33 35 35 35 35 35 37 38 40 41 41 41 41 41 41 42 43 42
4 3 8 5 3 12 10 3 4 5 5 7 4 3 3 3 4 2 3 2 2 5 3 1 2 1 2 3 4 5 3 5 5 4 4 5 7 8 9 10 12 13 15 17 18 20 21 21 23 24 24 25 25 26 26 26 26 27 28 29 30 31 32 32 32 32 33 35 35 34 33 34 35 37 39 40 39 39 39 39 40 42 43 44 45 44
2 3 6 3 3 10 7 2 1 2 3 4 1 2 3 3 3 1 2 1 2 5 5 4 2 1 1 2 4 6 3 3 6 5 4 7 7 8 10 11 13 14 16 17 19 20 21 23 24 24 23 25 26 27 26 26 27 28 29 30 31 32 33 33 33 33 34 33 32 32 34 36 39 41 40 39 39 39 41 42 44 44 44 44 44 44
2 2 4 1 3 5 4 4 2 0 2 2 1 4 2 2 3 1 2 3 2 2 4 3 1 2 2 2 1 2 3 3 5 6 5 7 7 8 12 13 13 15 16 18 20 21 22 23 22 22 23 25 27 28 27 27 29 30 31 31 31 32 32 32 33 32 31 32 33 36 39 41 41 40 40 41 42 43 44 44 44 44 44 44 45 45
2 2 4 3 3 2 3 5 4 2 2 2 3 2 2 3 5 2 2 2 3 2 3 2 2 3 2 2 2 2 2 4 4 5 6 7 7 10 14 14 14 17 19 21 22 22 23 22 21 23 25 26 27 28 28 28 29 29 30 31 31 31 31 31 31 31 33 35 38 40 41 42 41 41 42 44 44 44 43 43 43 44 45 46 46 46
1 2 4 2 1 3 4 5 5 4 3 2 2 1 1 2 4 3 1 4 5 1 3 3 3 4 2 1 2 1 4 6 6 7 7 7 11 14 17 16 18 21 22 22 22 21 21 21 22 25 26 26 26 27 28 28 28 28 29 30 31 30 30 30 32 35 38 40 41 42 43 42 43 43 43 43 43 43 43 44 44 45 45 46 45 46
1 2 5 2 2 4 6 3 2 5 5 5 1 1 2 3 2 2 2 2 2 2 4 5 4 3 2 2 3 4 5 5 6 6 5 10 15 17 18 19 21 23 22 22 21 21 22 22 25 26 26 25 25 26 27 28 28 30 31 31 31 30 31 34 37 40 42 42 43 43 43 43 43 42 42 43 43 43 43 44 44 43 44 44 44 45
1 2 3 4 3 4 5 4 1 4 5 5 3 3 2 3 2 1 1 2 1 2 3 4 4 2 4 4 5 6 6 5 6 5 5 12 17 17 18 21 23 24 23 23 22 22 24 24 26 26 25 24 24 27 30 31 32 33 33 33 32 33 36 39 42 43 43 43 43 43 44 43 43 43 43 43 43 43 43 42 42 42 43 44 44 44
2 2 2 5 3 2 3 2 2 1 2 3 4 4 3 1 1 1 1 2 3 1 1 2 4 4 5 3 5 6 6 5 5 3 7 15 18 19 21 24 25 25 24 23 22 22 25 25 26 26 24 23 26 31 34 34 33 32 31 32 34 37 40 42 44 43 43 43 43 44 44 44 44 44 43 42 42 41 42 42 42 42 43 44 43 41
1 2 1 4 4 2 2 2 3 3 2 1 1 2 1 0 3 3 2 2 2 2 3 2 3 7 5 3 4 5 5 5 3 3 10 18 20 21 25 25 25 25 25 24 22 24 27 26 25 25 24 26 31 34 34 33 31 30 31 33 36 39 42 43 43 43 43 44 44 44 44 44 43 42 41 41 41 41 41 42 42 42 42 43 42 41
1 2 1 3 3 3 4 1 4 3 2 2 1 1 3 2 3 4 1 3 1 1 1 2 2 6 5 4 5 4 2 5 7 8 13 20 22 24 26 26 25 25 25 24 25 27 28 25 23 23 27 31 34 34 32 31 29 30 33 35 38 41 43 43 43 43 44 45 45 44 44 43 42 41 41 41 41 41 41 42 42 42 43 44 45 46
1 2 2 4 4 4 5 2 3 1 2 2 1 0 2 0 2 5 4 3 1 2 1 2 2 6 5 3 5 2 6 12 15 15 17 22 25 25 26 27 27 26 26 27 28 28 25 22 22 26 31 34 34 33 31 29 30 32 35 37 40 43 43 43 43 45 45 45 45 44 42 42 41 41 41 41 41 41 42 43 44 45 46 46 46 46
1 1 2 3 5 6 6 5 4 4 2 1 2 1 1 2 5 3 2 3 0 4 4 3 4 6 4 3 3 7 13 17 20 22 23 24 25 25 26 27 27 27 28 29 28 24 22 22 27 32 35 35 33 31 30 30 32 34 36 39 42 43 43 44 44 45 45 45 44 43 42 42 42 42 41 41 41 42 44 45 46 46 45 45 44 43
1 1 2 3 2 3 4 4 3 3 2 1 1 1 2 3 4 1 1 3 1 3 4 5 5 6 7 6 7 10 10 12 19 25 26 25 25 26 26 26 27 27 28 28 25 22 23 27 32 35 36 34 32 30 30 31 33 35 38 41 42 43 44 45 45 45 45 44 43 43 43 42 42 41 41 41 43 44 45 45 45 44 43 42 43 43
2 1 2 4 4 4 5 7 4 1 2 4 3 2 4 4 3 4 3 2 3 2 2 7 7 7 12 10 8 9 8 9 17 23 26 26 26 26 25 25 27 28 29 28 25 24 27 32 35 36 35 32 30 29 31 32 34 37 41 42 43 43 45 45 45 45 44 43 42 42 42 41 41 41 41 43 44 44 44 43 43 42 41 41 41 41
3 1 2 4 5 6 7 8 4 1 3 7 6 4 5 5 4 6 4 5 4 3 4 7 5 5 11 12 9 10 9 10 18 24 26 27 27 26 25 25 28 31 32 29 25 26 31 34 35 34 31 29 29 30 31 33 36 39 41 42 43 44 45 45 45 44 43 43 42 42 41 41 41 42 43 43 43 42 42 41 41 40 40 39 39 39
4 1 2 2 5 8 8 9 6 3 5 7 7 7 6 6 7 8 9 7 6 4 8 6 2 6 13 13 11 13 14 17 23 27 27 27 27 26 24 26 31 33 31 26 25 29 33 34 34 31 29 28 29 30 32 35 38 41 42 43 44 45 45 45 44 43 43 42 42 41 41 41 41 42 43 42 42 41 40 40 39 39 39 38 38 37
3 1 2 1 5 9 9 10 7 4 5 6 8 9 7 8 10 10 10 7 8 10 14 11 11 14 16 14 14 18 23 24 26 27 27 28 28 25 25 28 32 32 28 25 28 33 34 33 32 30 28 29 30 32 34 37 40 41 42 44 45 45 45 44 43 43 43 42 42 41 41 41 42 42 42 41 41 40 39 39 38 38 38 38 38 38
1 1 0 3 3 8 8 6 2 2 4 7 10 10 6 7 8 9 8 6 7 11 14 12 12 14 15 15 15 20 23 23 24 26 27 28 27 25 25 29 31 29 26 26 32 34 34 32 30 29 28 29 31 33 36 38 40 42 43 44 45 45 44 43 43 43 43 42 42 41 41 41 41 41 41 40 40 40 39 38 38 37 38 38 38 38
2 1 2 5 3 7 6 4 4 4 4 6 11 12 7 6 6 6 5 5 7 7 7 6 7 8 9 10 14 21 25 23 23 25 26 27 27 25 26 29 30 27 26 30 34 33 32 30 28 28 29 31 32 35 37 39 41 43 44 45 45 44 44 43 43 43 42 42 41 41 41 40 40 40 40 40 39 39 38 38 37 37 38 38 38 37
2 2 1 3 1 6 6 5 5 5 5 3 7 7 6 5 4 4 4 6 8 6 3 4 6 6 7 10 11 17 21 21 23 25 26 27 26 25 25 27 27 26 28 31 33 31 29 29 28 29 30 32 33 35 37 39 41 43 44 45 44 43 43 43 43 43 42 41 40 40 40 40 39 40 40 40 39 38 38 38 38 38 38 39 38 37
2 4 2 2 1 5 9 8 3 4 2 4 5 6 7 6 6 7 7 8 8 6 5 6 8 8 11 13 11 13 19 23 26 28 27 28 27 25 25 25 25 27 29 31 31 29 28 28 29 30 31 32 34 35 37 39 41 43 44 43 43 43 43 43 43 42 41 40 39 39 39 39 40 39 39 39 39 39 39 39 39 39 39 39 39 38
4 4 2 2 1 3 6 6 5 2 4 7 5 4 6 5 6 7 9 10 9 9 9 9 11 12 16 19 18 19 23 25 28 30 29 28 26 23 23 24 25 27 29 30 29 28 28 29 30 31 32 33 34 35 38 40 42 43 43 42 42 42 42 43 43 42 41 39 39 39 39 39 39 38 38 39 39 39 39 39 39 39 38 38 38 37
5 4 2 2 1 2 3 4 1 5 6 5 3 3 3 1 2 2 7 10 9 10 9 8 12 18 21 23 22 22 23 24 27 31 29 24 21 21 22 24 26 27 28 28 27 27 28 29 30 31 32 33 34 36 38 40 42 43 42 41 41 42 42 43 42 41 40 39 39 38 38 38 38 37 37 38 38 39 39 39 38 38 37 36 36 35
6 4 1 1 1 0 0 2 4 6 7 4 1 2 2 3 4 3 3 7 9 11 11 8 10 17 20 21 23 23 21 18 20 25 25 20 19 22 23 25 27 27 26 26 26 26 27 28 30 31 32 32 34 37 39 40 41 41 41 40 41 42 42 43 42 40 39 39 38 38 37 37 36 36 36 36 38 38 38 37 36 35 34 34 34 33
5 3 3 2 0 2 1 3 4 5 4 4 4 2 3 5 6 7 2 5 7 11 15 13 12 16 18 19 22 20 15 9 8 16 21 22 22 24 25 26 27 26 25 26 26 26 27 29 31 31 31 32 35 37 39 40 40 40 40 40 41 42 42 42 41 40 39 38 37 36 37 35 35 35 35 35 37 37 36 34 33 32 32 32 33 33
6 3 3 3 0 2 3 1 2 2 5 6 4 3 6 7 6 5 2 6 6 9 14 16 15 16 17 19 21 16 8 4 5 13 23 25 25 26 26 27 26 25 25 26 26 27 28 30 31 31 31 33 36 38 39 39 39 39 40 40 41 42 42 42 41 39 38 37 35 35 35 35 34 34 33 34 35 34 32 31 30 29 30 31 31 33
5 4 2 2 2 2 3 2 3 5 7 6 5 6 10 8 4 4 4 7 6 7 10 14 16 17 18 20 19 10 5 7 10 20 28 27 25 27 27 26 26 25 25 26 26 27 30 31 31 31 32 35 37 38 38 38 38 39 39 40 41 41 41 41 39 38 37 35 34 33 33 33 33 33 32 32 32 31 29 29 29 28 28 29 30 32
2 2 0 2 2 3 4 3 4 5 7 5 5 10 12 7 3 2 2 6 5 7 10 12 15 19 21 21 17 12 14 19 22 27 29 26 26 28 27 25 26 25 25 26 27 28 30 31 30 30 32 35 36 37 37 37 37 39 39 40 41 40 40 39 38 37 35 34 33 32 32 32 32 32 31 29 29 28 26 26 27 27 27 28 30 32
1 0 1 2 2 2 3 3 3 6 7 6 7 11 12 5 1 4 5 10 13 15 18 19 21 23 23 22 22 21 24 26 26 27 28 27 28 29 27 26 25 25 25 26 27 29 30 30 29 30 32 34 35 36 36 36 37 39 40 40 40 39 39 38 37 36 34 33 32 31 31 31 31 31 28 26 26 27 26 25 25 26 27 28 31 33
4 3 2 3 3 3 1 0 2 5 5 11 13 9 8 7 6 8 11 17 22 22 23 25 27 27 25 24 25 25 26 26 26 27 27 27 28 28 26 26 25 25 26 27 28 30 29 28 29 31 33 34 34 34 35 36 38 39 40 40 39 38 38 37 36 35 33 32 31 30 30 30 29 28 27 26 26 26 26 25 25 25 27 29 31 34
4 5 3 3 4 4 3 4 4 3 8 19 14 4 9 14 16 19 19 22 26 28 28 28 28 27 25 24 25 25 25 26 27 27 26 27 28 27 26 25 25 26 26 27 28 28 27 28 30 31 32 33 33 34 35 37 38 39 39 39 38 38 37 36 35 33 32 30 30 29 28 28 27 26 26 26 26 25 26 26 25 25 27 29 31 33
8 8 4 2 5 5 5 10 9 4 8 18 16 17 21 24 26 25 24 26 30 30 29 27 26 25 23 23 24 25 26 27 27 26 26 26 27 26 25 25 26 26 27 27 27 26 26 28 30 31 32 32 32 33 35 36 38 39 39 39 38 37 37 36 34 32 31 29 29 29 27 25 25 26 27 27 27 27 27 28 28 28 29 31 32 34
11 10 4 1 3 6 12 21 24 23 21 23 24 27 29 29 29 28 28 30 30 27 25 24 24 24 23 23 23 26 28 27 25 25 25 25 26 26 25 25 25 25 26 26 25 25 27 29 30 32 32 31 32 34 35 36 37 38 38 38 37 36 35 35 33 32 30 28 28 27 25 24 25 26 27 27 28 28 29 30 30 31 32 33 34 35
9 12 8 2 1 2 7 12 16 18 21 20 21 25 28 29 30 29 28 28 25 23 22 22 24 25 26 25 25 26 27 25 23 24 25 25 26 26 25 25 25 25 25 24 24 25 27 29 31 32 32 32 33 34 36 36 37 37 37 37 36 34 34 33 31 31 30 28 27 26 25 26 26 27 28 29 29 29 29 29 31 32 33 34 36 36
3 8 7 4 4 6 10 15 17 20 24 25 26 29 30 28 26 24 22 22 22 22 23 25 27 28 28 26 24 24 25 24 23 24 25 24 25 25 24 24 24 24 23 23 24 26 28 30 31 32 32 32 33 35 36 37 37 37 36 36 35 33 32 31 30 30 30 28 26 25 26 27 27 27 28 29 31 32 31 31 31 32 33 34 36 37
6 6 5 4 4 7 14 22 23 21 24 26 25 24 22 20 18 18 19 21 23 24 26 27 28 27 26 24 22 22 24 24 24 23 24 24 24 23 23 23 23 22 22 22 24 26 28 30 31 31 31 33 34 35 36 37 37 36 35 34 33 32 31 30 29 29 28 26 25 25 26 27 27 27 27 29 30 32 33 33 33 33 34 34 35 34
9 5 5 3 2 4 11 17 14 7 11 18 20 19 20 20 19 21 24 26 26 27 27 27 27 25 24 22 21 21 23 24 23 22 22 23 23 22 21 21 21 20 21 22 24 26 27 29 30 30 31 33 33 34 35 36 35 34 33 32 31 31 31 30 29 28 27 25 25 25 26 26 26 27 28 29 30 31 32 33 33 34 35 35 35 33
19 15 11 9 7 10 19 25 18 10 14 24 27 26 24 23 22 25 28 29 28 26 24 23 23 24 23 22 21 21 23 24 22 21 21 21 21 20 20 19 19 19 21 23 24 25 27 28 29 30 31 33 33 34 35 35 33 32 31 29 29 29 30 30 29 27 26 25 25 26 26 26 27 28 29 30 31 32 33 34 33 33 33 34 35 34
Wind_Direction
44 61 40 22 352 332 326 326 270 235 205 180 142 110 57 14 317 301 283 15 22 5 298 344 338 322 333 322 229 192 186 191 194 201 214 214 215 221 228 236 242 248 256 259 256 260 268 278 290 300 304 305 310 318 322 329 335 337 339 337 336 338 335 332 330 329 327 325 326 324 323 323 323 323 323 324 326 327 327 326 325 324 323 323 322 321
47 59 22 332 303 293 313 332 342 48 56 101 107 106 58 26 315 303 269 358 25 30 281 342 2 351 354 348 334 160 165 188 199 208 220 221 222 225 232 242 247 251 254 251 251 254 261 273 290 303 308 311 315 320 324 330 333 334 334 332 333 334 331 329 327 325 323 322 322 320 319 321 320 320 320 321 323 324 326 325 324 323 323 322 322 321
45 51 338 318 306 292 356 359 37 61 51 50 68 100 56 4 302 307 315 338 10 42 274 346 21 8 3 11 49 110 148 200 210 221 241 243 239 236 238 247 248 247 251 252 252 256 262 277 298 308 311 314 315 319 324 328 329 329 330 331 332 331 328 326 325 323 322 321 320 317 316 317 317 317 318 318 319 321 323 323 323 322 321 321 320 320
57 5 319 324 337 54 43 14 30 42 44 47 52 79 2 340 348 320 330 336 340 297 235 358 46 27 13 27 44 57 66 59 248 260 298 296 275 263 259 258 253 248 253 255 254 258 269 288 306 309 310 312 312 316 322 323 323 324 326 330 331 331 330 329 328 325 322 320 318 316 315 315 314 315 316 315 315 318 319 320 320 320 319 319 319 318
86 321 324 341 22 62 54 23 29 27 17 1 56 93 78 339 9 263 285 327 333 290 138 38 53 22 9 24 26 34 51 50 38 30 10 356 338 299 280 267 256 254 259 262 262 266 280 296 304 306 308 310 310 314 316 315 315 315 318 326 330 331 331 332 332 330 326 323 320 317 315 313 313 312 312 311 312 314 315 315 315 316 316 316 315 315
60 349 355 26 32 43 63 41 25 18 8 341 324 133 144 161 268 273 295 330 10 28 15 51 66 10 353 18 12 7 37 36 28 30 19 14 14 353 316 279 261 256 257 265 275 282 292 302 307 308 311 313 312 312 311 311 314 315 319 325 327 328 329 331 332 332 331 327 324 322 318 316 314 312 310 310 311 312 312 312 312 313 313 313 313 313
26 6 28 62 29 35 55 44 7 27 32 347 289 147 138 127 290 288 309 355 70 3 336 48 97 138 332 4 349 338 11 18 19 21 17 19 20 13 359 324 279 259 260 279 296 300 306 310 310 308 310 310 311 314 315 318 321 321 322 325 325 325 327 329 331 332 331 330 328 326 323 320 317 315 313 312 313 313 314 314 314 315 315 315 314 314
355 3 21 34 25 34 36 9 340 30 27 304 186 122 25 306 285 262 327 40 96 253 339 17 79 121 333 343 319 326 14 19 9 7 9 19 27 28 30 36 50 51 13 352 333 325 325 320 317 317 317 317 318 321 321 322 323 322 323 324 324 325 326 328 330 331 330 330 329 328 326 324 322 319 318 318 318 318 318 317 317 317 316 317 316 315
1 8 7 13 18 20 11 330 302 16 37 267 229 16 304 285 229 189 128 86 330 60 12 348 33 83 262 287 311 338 39 18 355 345 354 13 29 39 46 52 52 43 26 8 352 343 338 334 333 331 329 326 325 325 324 324 325 325 326 326 326 326 327 329 330 329 329 329 328 328 327 324 322 320 319 318 317 317 317 316 315 315 315 315 314 313
24 8 341 26 31 360 317 304 301 151 248 288 298 350 344 52 115 127 104 102 39 59 47 331 19 73 256 288 314 355 51 356 323 314 335 5 26 36 40 40 30 16 8 360 350 344 340 337 336 334 332 331 330 329 329 328 328 328 327 327 327 327 327 328 328 328 328 329 328 327 325 323 321 320 318 316 315 315 315 314 313 312 311 310 310 309
325 338 6 50 25 323 299 305 309 200 273 311 339 35 36 39 53 75 58 81 62 20 257 267 6 106 245 284 261 273 42 248 279 305 330 359 14 22 24 17 8 4 360 351 343 338 338 336 336 337 337 337 337 335 334 332 331 331 329 330 329 328 328 328 328 329 329 329 327 326 324 323 321 320 319 318 317 317 316 315 314 312 311 310 309 309
356 25 5 360 353 340 326 319 333 287 321 345 3 50 55 6 13 34 353 33 71 329 251 235 349 82 159 254 233 247 276 237 226 263 302 340 357 8 10 358 353 358 352 344 341 340 341 341 340 341 340 340 338 336 336 335 334 333 332 333 331 329 330 329 329 328 328 327 327 326 325 323 323 323 322 320 319 319 317 316 316 315 314 313 312 312
354 351 330 318 352 7 9 350 347 344 358 7 4 21 57 21 4 23 333 9 93 260 233 208 353 50 195 247 226 241 275 248 223 236 271 326 344 343 349 350 345 346 344 342 344 344 343 342 342 343 341 340 340 338 338 337 336 335 334 333 331 330 330 330 330 329 328 328 327 328 327 325 325 323 322 320 318 318 317 317 317 316 315 314 313 312
340 299 344 357 1 8 21 54 360 339 352 2 353 23 76 77 33 339 296 348 310 276 276 330 348 324 279 273 208 197 237 242 232 245 281 319 336 329 332 341 339 339 342 343 344 343 341 341 342 342 341 341 340 339 338 337 336 334 333 332 330 330 330 330 330 329 328 328 328 327 325 323 321 320 319 317 316 316 316 315 315 314 313 312 311 310
30 311 345 24 341 353 18 56 328 281 321 324 258 87 91 113 84 333 261 265 282 287 300 331 3 168 244 292 210 190 204 245 237 242 287 314 327 337 337 338 338 338 342 344 343 341 339 339 340 339 338 338 338 337 336 334 333 332 330 330 329 329 329 328 327 327 327 326 325 322 320 319 319 318 317 315 314 314 314 314 313 312 311 311 310 309
78 269 282 292 294 330 4 338 325 136 312 297 122 70 39 127 119 149 213 200 230 305 304 311 289 193 214 295 294 174 211 253 240 238 292 325 330 347 345 338 338 340 343 344 340 338 338 338 337 335 334 336 338 338 337 334 332 330 329 328 327 327 327 327 327 326 325 322 320 319 320 320 319 318 316 314 313 313 313 313 312 311 310 309 308 307
59 264 285 334 304 326 16 329 333 37 327 320 52 35 265 171 124 105 315 344 55 50 284 294 306 296 321 320 352 48 263 274 285 272 294 327 335 343 343 340 342 343 343 341 338 337 337 335 333 334 336 337 339 339 337 336 333 331 330 329 329 329 329 328 327 325 323 321 321 321 321 320 318 316 315 314 313 313 313 312 310 310 308 307 307 306
100 272 298 360 301 322 358 326 331 26 46 47 37 306 241 84 86 95 40 358 34 44 276 326 324 297 335 317 270 303 278 283 310 296 288 327 342 341 343 344 342 340 338 336 336 335 333 332 333 336 338 336 336 336 335 335 333 332 331 331 331 331 329 327 325 324 323 323 323 322 321 319 318 317 315 314 314 313 312 311 310 310 308 308 308 307
79 323 299 274 230 308 350 9 342 3 35 74 97 231 96 68 14 32 67 24 8 314 289 316 321 269 229 228 226 234 242 260 295 294 298 337 342 339 339 340 337 335 334 333 335 334 332 331 333 335 337 335 334 335 335 334 332 331 331 331 330 328 326 325 325 325 325 324 323 321 320 320 319 318 317 316 315 314 313 312 312 311 311 310 310 310
19 64 289 273 248 303 354 49 78 331 357 44 48 357 37 114 162 307 60 138 187 289 294 316 332 290 235 213 196 216 223 230 266 280 319 332 332 331 332 335 334 332 332 332 333 333 333 331 332 334 336 334 333 334 335 334 331 330 330 328 326 325 325 326 327 326 325 323 322 321 321 321 320 320 319 318 317 316 315 315 315 314 313 312 311 311
1 75 274 291 325 353 353 33 125 131 339 3 27 24 358 359 79 40 15 119 131 171 232 320 316 276 253 211 185 209 218 218 237 267 321 324 327 332 335 335 333 332 332 331 330 331 332 331 332 334 334 333 332 333 334 333 331 329 327 325 324 325 327 328 327 326 324 323 324 324 323 322 322 322 321 319 319 318 318 317 316 315 314 313 313 313
5 78 254 301 342 3 259 231 157 151 173 188 85 100 140 330 72 75 327 319 85 141 173 161 285 273 261 206 192 208 214 229 272 311 316 323 329 334 335 335 332 331 332 330 328 329 332 333 333 333 333 332 332 333 333 332 331 328 326 325 326 328 329 328 327 325 325 326 326 325 324 324 324 323 322 321 321 320 319 318 317 316 316 314 313 311
80 94 69 283 282 271 278 236 130 156 177 167 201 135 133 132 106 114 216 271 333 346 172 129 261 271 265 223 202 188 216 297 316 315 315 326 331 331 331 331 331 331 331 330 329 329 332 333 332 331 332 333 334 334 334 332 329 326 325 327 329 330 330 328 326 326 327 327 326 326 326 326 326 325 324 323 322 321 320 319 317 317 315 313 311 309
31 70 25 299 292 314 328 15 86 56 73 122 274 187 140 209 124 140 165 175 219 278 159 101 270 267 278 258 210 228 330 322 319 321 323 326 327 327 327 329 331 333 333 332 330 330 331 331 331 333 335 336 336 336 333 329 326 325 326 328 330 330 329 327 328 329 328 327 327 327 328 328 327 326 325 324 324 323 321 319 318 317 315 314 313 313
327 83 63 360 346 347 347 358 357 349 24 173 261 267 164 102 96 111 112 89 293 239 160 141 248 255 278 316 275 297 319 319 316 321 324 321 320 322 324 330 333 332 331 331 330 330 332 334 336 338 338 338 337 334 330 326 325 325 327 330 331 330 328 329 330 330 329 328 328 329 330 330 328 327 327 326 325 323 322 321 320 319 319 318 318 319
167 169 122 94 49 344 317 306 296 299 307 281 247 173 173 136 124 163 78 83 264 243 154 166 229 261 284 302 306 305 313 312 310 315 318 316 317 320 324 330 331 328 328 331 333 334 336 337 337 337 338 338 334 330 326 324 324 326 329 331 331 330 329 331 331 330 329 330 331 331 331 330 330 329 329 327 325 324 323 323 323 322 322 322 322 323
109 163 189 168 174 201 237 251 253 335 317 285 270 219 212 209 153 123 111 152 201 190 198 229 238 275 289 292 300 302 303 303 304 308 311 312 316 319 323 327 326 325 329 333 334 333 335 335 336 336 336 334 329 325 323 323 325 328 331 332 331 331 331 332 331 330 331 332 332 332 332 332 332 331 329 327 326 326 326 325 325 325 326 326 325 325
97 315 255 194 216 234 243 256 265 30 263 260 262 238 217 219 170 144 183 206 155 113 269 252 215 245 278 287 292 294 301 303 301 304 306 308 312 315 319 324 325 328 331 331 330 331 334 335 335 335 334 329 324 322 322 324 327 331 333 332 331 332 332 332 331 331 332 333 333 333 333 334 333 330 328 328 328 328 328 327 327 327 327 327 326 326
111 248 249 187 259 266 262 268 268 245 247 252 253 247 229 211 191 196 218 205 156 189 251 261 261 265 276 286 291 292 296 295 296 301 303 304 308 312 320 326 327 329 329 327 328 332 334 335 334 333 329 324 322 322 324 328 331 333 333 332 332 333 333 332 332 332 333 334 335 336 336 335 333 330 329 330 331 331 330 329 329 329 328 327 327 328
108 235 234 158 292 281 269 273 266 237 254 263 255 247 229 212 210 218 230 210 194 233 254 268 283 279 276 279 283 290 295 295 297 302 304 306 310 317 323 327 327 326 325 327 331 333 333 334 333 329 325 323 323 325 328 331 333 334 333 332 332 333 333 333 333 333 335 336 337 338 337 334 333 331 331 333 334 333 331 330 329 329 329 329 330 331
102 267 42 83 327 293 288 306 322 186 242 266 273 268 239 219 225 231 239 219 209 244 258 266 276 276 275 280 287 295 301 303 303 305 308 312 317 320 322 325 325 323 324 329 331 331 332 332 329 325 323 324 325 328 331 333 334 334 332 332 333 334 333 333 334 335 336 338 339 339 336 335 334 333 334 336 335 333 332 331 331 332 332 332 333 333
120 302 12 60 9 287 289 335 342 318 291 274 282 282 251 213 215 224 227 199 194 224 248 268 271 262 272 295 305 307 309 309 307 308 312 315 317 319 321 324 323 320 324 329 329 331 332 329 326 324 323 325 327 330 333 334 334 333 332 333 334 333 333 334 335 336 338 341 340 338 336 335 335 336 337 337 335 333 332 333 334 335 335 334 335 334
124 102 59 69 350 273 283 310 306 324 341 289 267 256 216 200 219 248 256 219 204 201 193 231 248 257 297 317 313 307 307 307 306 310 313 313 315 318 321 322 320 318 323 328 329 330 329 326 324 323 323 325 328 331 334 334 333 332 332 333 333 333 334 335 336 338 340 342 340 338 336 336 337 340 339 337 335 334 335 337 338 338 338 336 337 338
118 100 130 150 169 269 290 309 337 37 20 263 235 183 171 185 203 223 251 240 213 199 210 247 267 285 301 301 292 291 297 303 308 311 312 313 314 317 319 319 319 320 324 327 329 328 325 323 322 322 323 326 329 332 334 334 332 331 331 332 333 334 334 335 337 340 342 342 340 338 337 338 341 341 338 336 336 336 338 340 340 340 339 338 339 340
123 104 146 180 156 254 301 345 17 35 227 243 257 213 198 195 186 214 259 261 237 226 237 260 275 278 284 287 286 290 296 305 310 308 309 312 313 314 316 317 320 323 325 327 327 325 322 321 321 321 324 327 330 333 334 333 331 331 332 333 334 334 335 337 339 341 342 342 341 340 340 341 341 340 338 337 336 337 340 341 340 340 340 341 342 342
141 128 151 174 181 279 351 34 351 276 263 264 285 249 211 160 140 236 281 270 246 231 228 242 261 266 274 283 289 293 297 303 303 302 306 314 316 317 318 320 323 325 326 326 324 321 320 320 320 322 325 328 331 333 333 332 332 331 332 334 334 335 337 339 340 342 342 343 343 342 341 341 340 340 340 337 336 338 341 341 340 341 342 343 345 344
140 137 142 176 184 201 9 226 259 308 326 324 277 176 146 151 163 162 266 270 248 229 220 223 251 262 269 281 292 295 297 301 299 299 310 322 323 322 323 323 326 326 324 323 320 318 319 319 320 323 325 328 332 333 333 332 332 332 333 335 336 338 339 340 341 343 344 344 344 342 341 340 339 340 340 338 337 339 341 341 342 343 345 345 346 345
115 133 160 173 182 100 76 299 317 349 327 270 239 210 145 138 136 124 122 283 260 230 220 216 235 257 267 281 293 297 304 313 294 296 315 327 326 324 325 325 326 326 323 321 319 319 319 319 321 323 326 330 333 334 333 332 332 333 335 336 338 339 339 341 343 344 344 344 344 341 339 339 340 341 340 338 337 340 342 343 345 348 348 347 346 345
61 59 111 123 130 97 95 282 264 250 254 248 232 171 139 140 136 106 20 294 255 217 215 215 231 255 270 285 294 299 312 319 275 299 318 327 326 325 326 326 328 327 322 320 319 319 319 320 322 324 328 332 334 333 333 333 333 334 336 338 340 340 340 341 343 344 344 344 343 341 339 339 341 341 341 339 338 341 345 346 349 352 350 347 345 344
39 23 56 127 205 169 139 195 233 247 250 242 218 177 154 150 134 62 348 281 237 221 228 226 241 266 284 294 296 289 273 278 290 309 318 323 325 326 327 328 328 325 320 319 318 318 320 321 323 327 332 335 335 333 333 334 334 335 338 340 341 341 341 342 343 344 344 343 342 341 340 340 341 341 342 340 340 344 349 350 351 353 349 345 344 345
25 350 87 163 191 185 185 226 268 266 249 235 203 177 160 135 75 80 260 268 266 287 285 267 271 286 295 298 293 278 281 295 302 309 316 322 325 326 329 328 325 322 319 318 317 319 320 321 324 330 335 335 334 333 334 335 336 337 339 341 341 341 341 342 343 343 343 342 343 342 341 341 340 341 343 343 342 347 353 353 352 352 349 344 344 348
172 86 168 164 158 166 186 221 279 282 258 208 162 164 162 139 89 210 249 302 308 305 304 299 297 301 303 302 298 293 297 305 307 308 315 322 324 326 328 326 322 319 318 317 318 319 321 323 327 333 336 335 334 334 335 336 337 339 340 341 341 341 341 342 343 343 343 343 343 342 343 343 342 342 345 347 347 349 353 355 354 353 350 346 348 352
171 162 209 214 180 142 105 279 290 296 244 167 140 137 168 187 244 267 286 304 303 301 306 306 305 309 309 304 303 303 303 307 309 311 317 322 324 326 326 323 321 319 317 318 319 320 323 325 331 336 337 336 335 335 336 338 339 340 341 341 341 341 341 343 344 343 344 343 342 343 344 344 343 344 347 351 353 351 352 356 358 356 353 352 352 353
185 177 201 224 188 140 131 201 216 237 185 170 165 203 231 236 268 285 289 294 296 300 304 303 306 313 312 306 306 306 305 307 310 314 318 320 321 324 323 321 319 317 317 319 320 322 325 329 333 338 338 335 336 337 338 339 340 340 340 341 342 341 341 343 344 344 345 344 342 344 345 345 344 346 350 354 356 356 355 358 0 360 357 357 356 355
207 194 183 203 203 191 214 235 247 255 185 188 214 259 268 272 282 285 283 286 291 298 303 304 306 312 312 309 307 304 304 308 311 314 317 318 319 322 321 318 317 317 318 319 320 322 327 332 336 338 337 336 338 339 340 340 340 340 341 342 342 342 341 343 345 345 345 346 345 345 346 347 348 349 352 355 359 1 1 0 1 3 1 360 0 359
221 206 176 131 226 262 269 260 260 265 257 245 251 265 274 281 285 284 284 286 292 300 305 304 304 308 310 309 305 303 305 309 312 313 314 316 318 318 317 315 315 316 317 319 321 325 330 335 337 336 336 339 341 341 341 342 341 341 341 341 342 342 341 343 345 345 347 348 347 347 349 351 352 352 352 355 359 5 6 3 1 4 4 3 2 1
238 211 202 218 247 289 279 255 247 257 264 261 263 270 277 283 287 288 289 291 296 301 301 300 304 308 310 308 305 305 307 308 310 311 312 314 316 314 313 313 314 316 319 321 324 329 333 336 337 337 339 342 343 343 343 342 342 343 342 341 341 341 341 344 345 345 348 351 350 350 353 355 355 354 354 355 358 4 7 6 3 3 5 5 2 0
211 191 199 228 218 221 256 263 260 266 274 275 276 278 281 285 288 290 291 293 296 297 298 302 306 307 308 307 306 305 305 305 306 308 309 311 312 310 310 313 316 319 321 323 327 332 336 337 337 339 341 343 344 344 343 342 343 343 342 341 340 339 342 347 348 347 350 353 353 354 357 358 356 356 357 358 358 360 4 7 5 4 6 7 3 360
169 170 182 200 227 250 269 272 271 273 277 278 278 281 284 289 290 289 290 292 293 295 298 302 305 305 304 303 302 302 301 301 303 305 306 307 308 307 310 315 319 321 322 324 330 334 337 337 338 340 342 344 345 345 343 343 343 343 342 341 339 340 344 349 350 350 352 355 356 357 358 358 357 359 0 0 359 358 0 4 5 5 7 8 7 4
182 190 178 172 251 263 256 259 261 264 271 277 284 290 292 292 291 289 291 294 294 296 299 301 302 301 299 299 300 300 297 299 302 304 304 305 305 307 312 317 320 321 321 326 332 335 337 338 339 341 343 345 345 345 343 343 344 343 342 341 340 343 347 350 352 353 355 359 1 359 358 359 0 2 3 2 1 359 358 1 4 6 6 6 6 7
205 210 194 184 211 244 258 266 267 257 264 280 292 297 296 294 292 289 291 295 297 299 301 301 300 300 299 300 301 298 295 298 302 302 302 303 304 308 315 318 319 320 323 328 333 336 338 339 340 343 345 345 345 345 344 344 344 343 342 343 345 348 349 350 353 356 359 3 4 360 358 1 2 3 4 3 3 1 359 359 2 6 9 7 4 4